Wainwright, AK

7:59 PM AKST on February 07, 2016 (GMT -0900)
Wainwright

Weather History for PAWI - December, 2013

Change the Weather History Date:

Sunday, December 1, 2013

  Actual Average (PABR) Record (PABR)
Temperature  
Mean Temperature 24 °F -5 °F  
Max Temperature 28 °F - 30 °F (2006)
Min Temperature 21 °F -10 °F -42 °F (1948)
Degree Days  
Heating Degree Days 40 70  
Month to date heating degree days 70  
Since 1 July heating degree days 6020  
Cooling Degree Days 0    
Month to date cooling degree days  
Year to date cooling degree days  
Moisture  
Dew Point 25 °F    
Average Humidity 87    
Maximum Humidity 93    
Minimum Humidity 81    
Precipitation  
Precipitation 0.00 in 0.01 in 0.07 in (1987)
Month to date precipitation 0.01  
Year to date precipitation 4.40  
Snow  
Snow 0.00 in 0.10 in 1.40 in (2012)
Month to date snowfall 0.1  
Since 1 July snowfall 20.4  
Snow Depth -    
Sea Level Pressure  
Sea Level Pressure 30.21 in    
Wind  
Wind Speed 31 mph (SW)    
Max Wind Speed 41 mph    
Max Gust Speed 51 mph    
Visibility 6 miles    
Events Snow    
T = Trace of Precipitation, MM = Missing Value Source: NWS Daily Summary

Daily Weather History Graph

Daily Weather History Graph

Search for Another Location

Airport or City:

Trip Planner

Search our weather history database for the weather conditions in past years. The results will help you decide how hot, cold, wet, or windy it might be!

Date:

Astronomy

Dec. 01, 2013 Rise Set
Actual Time 12:56 PM AKST 2:01 PM AKST
Civil Twilight 11:03 AM AKST 3:54 PM AKST
Nautical Twilight 9:20 AM AKST 5:36 PM AKST
Astronomical Twilight 8:01 AM AKST 6:56 PM AKST
Moon 10:34 AM AKST (12/1) 2:08 PM AKST (12/1)
Length of Visible Light 4h 50m
Length of Day
1h 04m
Waning Crescent, 2% of the Moon is Illuminated
Dec 1
Waning Crescent
Dec 2
New
Dec 9
First Quarter
Dec 17
Full
Dec 25
Last Quarter

Hourly Weather History & Observations

Time (AKST) Temp. Windchill Dew Point Humidity Pressure Visibility Wind Dir Wind Speed Gust Speed Precip Events Conditions
12:11 AM 28.4 °F 11.2 °F 24.8 °F 86% 30.03 in 2.0 mi SW 38.0 mph 47.2 mph 0.00 in Snow Light Snow
12:38 AM 28.4 °F 10.8 °F 24.8 °F 86% 30.03 in 1.8 mi SW 40.3 mph 50.6 mph 0.00 in Snow Light Snow
12:53 AM 28.0 °F 10.7 °F 25.0 °F 88% 30.04 in 2.5 mi SSW 38.0 mph 49.5 mph 0.00 in Snow Light Snow
1:38 AM 28.4 °F 11.0 °F 24.8 °F 86% 30.04 in 0.8 mi SSW 39.1 mph 49.5 mph 0.00 in Snow Light Snow
1:51 AM 28.4 °F 11.2 °F 24.8 °F 86% 30.04 in 0.8 mi SSW 38.0 mph 49.5 mph 0.00 in Snow Light Snow
1:53 AM 28.9 °F 12.1 °F 25.0 °F 85% 30.05 in 0.8 mi SSW 36.8 mph 48.3 mph 0.00 in Snow Light Snow
2:03 AM 28.4 °F 11.0 °F 26.6 °F 93% 30.05 in 1.0 mi SSW 39.1 mph 47.2 mph 0.00 in Snow Light Snow
2:09 AM 28.4 °F 11.4 °F 26.6 °F 93% 30.05 in 0.8 mi SSW 36.8 mph 47.2 mph 0.00 in Snow Light Snow
2:24 AM 28.4 °F 10.6 °F 26.6 °F 93% 30.05 in 0.8 mi SSW 41.4 mph 48.3 mph 0.00 in Snow Light Snow
3:50 AM 28.4 °F 11.4 °F 24.8 °F 86% 30.07 in 3.0 mi SW 36.8 mph 46.0 mph 0.00 in Snow Light Snow
3:53 AM 28.9 °F 12.1 °F 25.0 °F 85% 30.07 in 4.0 mi SW 36.8 mph 46.0 mph 0.00 in Snow Light Snow
4:53 AM 28.9 °F 13.0 °F 25.0 °F 85% 30.10 in 9.0 mi SW 32.2 mph 42.6 mph 0.00 in Snow Light Snow
5:53 AM 28.9 °F 13.5 °F 26.1 °F 89% 30.12 in 5.0 mi SW 29.9 mph 39.1 mph 0.00 in Snow Light Snow
6:53 AM 28.9 °F 14.3 °F 25.0 °F 85% 30.14 in 6.0 mi SW 26.5 mph 36.8 mph 0.00 in Snow Light Snow
7:53 AM 28.9 °F 13.7 °F 26.1 °F 89% 30.15 in 6.0 mi SW 28.8 mph 34.5 mph 0.00 in Snow Light Snow
8:53 AM 28.9 °F 14.0 °F 26.1 °F 89% 30.16 in 8.0 mi SW 27.6 mph 36.8 mph 0.00 in Snow Light Snow
9:53 AM 28.9 °F 14.0 °F 26.1 °F 89% 30.18 in 10.0 mi SW 27.6 mph - 0.00 in   Overcast
10:53 AM 28.9 °F 14.8 °F 26.1 °F 89% 30.21 in 6.0 mi SW 24.2 mph - N/A   Overcast
11:53 AM 28.9 °F 15.1 °F 26.1 °F 89% 30.22 in 4.0 mi SW 23.0 mph 31.1 mph 0.00 in Snow Light Snow
12:53 PM 28.9 °F 15.1 °F 26.1 °F 89% 30.24 in 10.0 mi SW 23.0 mph 28.8 mph 0.00 in   Overcast
1:23 PM 28.4 °F 14.4 °F 26.6 °F 93% 30.25 in 10.0 mi SW 23.0 mph 29.9 mph N/A   Overcast
1:53 PM 28.9 °F 15.4 °F 26.1 °F 89% 30.26 in 8.0 mi SW 21.9 mph - N/A   Overcast
2:53 PM 28.9 °F 15.1 °F 26.1 °F 89% 30.27 in 10.0 mi SW 23.0 mph - N/A   Overcast
3:53 PM 28.9 °F 17.7 °F 26.1 °F 89% 30.29 in 10.0 mi SW 15.0 mph - N/A   Overcast
4:53 PM 28.9 °F 17.7 °F 26.1 °F 89% 30.31 in 10.0 mi SW 15.0 mph - N/A   Overcast
5:09 PM 28.4 °F 17.0 °F 24.8 °F 86% 30.32 in 10.0 mi SW 15.0 mph - N/A   Overcast
5:53 PM 28.9 °F 18.6 °F 25.0 °F 85% 30.34 in 10.0 mi SW 12.7 mph - N/A   Overcast
6:53 PM 28.9 °F 17.3 °F 24.1 °F 82% 30.36 in 10.0 mi WSW 16.1 mph - N/A   Overcast
7:53 PM 27.0 °F 15.6 °F 23.0 °F 85% 30.38 in 10.0 mi West 13.8 mph - N/A   Overcast
8:53 PM 26.1 °F 14.5 °F 23.0 °F 88% 30.40 in 10.0 mi West 13.8 mph - N/A   Overcast
9:53 PM 25.0 °F 16.3 °F 21.0 °F 85% 30.43 in 10.0 mi West 8.1 mph - N/A   Overcast
10:29 PM 23.0 °F 14.7 °F 19.4 °F 86% 30.45 in 10.0 mi WNW 6.9 mph - N/A   Mostly Cloudy
10:53 PM 21.9 °F 15.7 °F 18.0 °F 85% 30.47 in 10.0 mi WNW 4.6 mph - N/A   Scattered Clouds
11:53 PM 21.0 °F 11.4 °F 16.0 °F 81% 30.48 in 10.0 mi NW 8.1 mph - N/A   Clear